Orizuru

operational
NORAD ID: 20479 Int'l Des: 1990-013 Owner: NASDA Country: J
LEORETROGRADE

Über Orizuru

Beschreibung wird geladen...

Live-Position

3D-Globus wird geladen...

Nächste Überflüge

Höhenverlauf

Altitude vs Time

uPlot chart will show altitude changes over time

Zweizeiliger Elementsatz

1 20479U 90013B 26062.40250880 .00000047 00000-0 17739-3 0 9999
2 20479 99.0617 10.0640 0538902 8.9148 352.1073 12.84030519689999
Epoch: 3. März 2026 • Age: 25 hours

Aktueller Status

Höhe 1581.0 km
Geschwindigkeit 6.97 km/s
Subsatellitenpunkt 42.61°N, 17.66°E
Startdatum 7. Feb. 1990
Alter 36 years
Typ other

Technische Details

Klassifizierung Payload
Masse 50.00 kg
Trockenmasse 50.00 kg
Gesamtmasse 50.00 kg
Länge 0.40 m
Durchmesser 0.40 m
Spannweite 1.90 m
Form Poly + Ant
Hersteller NAL
Bus-Typ NASDA
Phasenstatus In Orbit
Besitzer/Staat NASDA/J

Große Konstellationen

Loading constellations...